Location: Carrer del Canonge
(41.4901°N, 2.2931°E)
Time: 04:12:20
(UTC+00:00)

CENTAUR R/B - Pass Details

Date: 18 September 2020
Orbit: 755 x 1433 km, 63.4° (Epoch: 02 October)

Event Time Altitude Azimuth Distance (km) Brightness Sun altitude
Rises 19:24:20 0° 327° (NNW) 4,103 6.6 -17.4°
Reaches altitude 10° 19:27:14 10° 335° (NNW) 3,230 5.8 -17.9°
Maximum altitude 19:34:38 39° 42° (NE) 1,928 3.8 -19.2°
Enters shadow 19:38:32 27° 89° (E) 2,431 4.0 -19.9°
